Вернуться в каталог

COSMOS 2004

АктивенВоенныеPO
NORAD 19826·PAYLOAD·🇷🇺 Russia

Запущен Feb 22, 1989 с Plesetsk Cosmodrome

Loading…

Ближайшие Пролёты (ближайшие 24 часа)

TLE

СвежийSource: Space-Track

Эпоха: Sep 14, 2026, 14:57 UTC

1 19826U 89017A   26257.62320432  .00000047  00000-0  35273-4 0  9990
2 19826  82.9520 217.4232 0030272   4.5111 169.5624 13.72561472880750

Отслеживайте COSMOS 2004 в реальном времени с AllMySat

Download on the App Store